Regional Weather Roundup
Issued by NWS

Home | Current Version | Previous Version | Graphics & Text | Print | Product List | Glossary Off
Versions: 1 2 3 4 5 6 7 8 9 10 11 12 13 14 15 16 17 18 19 20 21 22 23 24 25 26 27 28 29 30 31 32 33 34 35 36 37 38 39 40 41 42 43 44 45 46 47 48 49 50

000
ASUS43 KDMX 010403
RWRIA

WEATHER ROUNDUP FOR IOWA
NATIONAL WEATHER SERVICE DES MOINES IA
1100 PM CDT TUE MAY 31 2016

NOTE: "FAIR" INDICATES FEW OR NO CLOUDS BELOW 12,000 FEET WITH NO
SIGNIFICANT WEATHER AND/OR OBSTRUCTIONS TO VISIBILITY.

* - THESE STATIONS ARE NOT NWS STATIONS...THUS NOT UNDER NWS
QUALITY CONTROL.  THEY ALSO DO NOT REPORT WEATHER SUCH
AS PRECIPITATION OR FOG.

IAZ001>003-012>014-020>022-031>034-043>046-010500-
   NORTHWEST IOWA

CITY           SKY/WX    TMP DP  RH WIND       PRES   REMARKS
CARROLL *      PTCLDY    63  50  63 CALM      29.95S
CHEROKEE *     CLEAR     57  55  95 CALM      29.93R
DENISON *      CLEAR     59  52  77 SE5       29.94R
LE MARS *      CLEAR     63  54  72 S6        29.93R
ORANGE CITY *  CLEAR     61  54  77 SW8       29.92R
SHELDON *      PTCLDY    63  50  63 S9        29.90R
SIOUX CITY     CLEAR     62  51  67 SW6       29.93R
SPENCER        CLEAR     60  51  72 S8        29.91S
STORM LAKE *   CLEAR     64  48  55 S7        29.95S
$$

IAZ055>058-069>071-079>083-090>094-010500-
   SOUTHWEST IOWA

CITY           SKY/WX    TMP DP  RH WIND       PRES   REMARKS
ATLANTIC *     CLOUDY    63  59  88 CALM      29.98R
AUDUBON *      CLEAR     57  54  88 CALM      29.99R
CLARINDA *       N/A     64  63  94 MISG      29.98F
COUNCIL BLFS * CLOUDY    64  57  77 S5        29.98R
CRESTON *      CLEAR     64  64 100 W3        29.98F FOG
HARLAN  *      PTCLDY    61  55  82 CALM      30.01R
LAMONI         MOCLDY    64  63  96 CALM      29.95S
RED OAK *      MOCLDY    63  59  88 CALM      29.98S
SHENANDOAH *   PTCLDY    64  64 100 CALM      29.98F
$$

IAZ047>049-059>061-072>074-084-010500-
   CENTRAL IOWA

CITY           SKY/WX    TMP DP  RH WIND       PRES   REMARKS
AMES           CLEAR     62  61  96 S5        29.95R
ANKENY *       FOG       64  64 100 CALM      29.95R VSB 3/4
BOONE *        CLEAR     66  61  82 SW3       29.95R
CHARITON *     CLOUDY    64  64 100 CALM      29.95F
DES MOINES     PTCLDY    66  63  90 SW5       29.95R
GRINNELL*      CLOUDY    64  63  94 SW3       29.95R
KNOXVILLE *    CLOUDY    64  61  88 CALM      29.94S
MARSHALLTOWN   PTCLDY    63  63 100 SW3       29.94R
NEWTON *       MOCLDY    64  64 100 SW5       29.95R
PELLA *        PTCLDY    64  63  96 CALM      29.96R
PERRY *          N/A     64  61  89 SW6       29.96R
$$

IAZ004>006-015-016-023>025-035-036-010500-
   NORTH CENTRAL IOWA

CITY           SKY/WX    TMP DP  RH WIND       PRES   REMARKS
ALGONA *       CLOUDY    61  57  88 S7        29.93S
CLARION *      CLEAR     63  61  94 S5        29.93S
ESTHERVILLE    CLEAR     59  53  80 S7        29.91R
FORT DODGE *   CLEAR     57  52  82 CALM      29.94S
MASON CITY     PTCLDY    59  58  96 S5        29.94R
FOREST CITY *  CLEAR     55  55 100 CALM      29.92S
WEBSTER CITY * CLEAR     61  61 100 S7        29.92S
IOWA FALLS *     N/A     63  59  88 S5        29.96R
$$

IAZ007>011-017>019-026>030-037>042-050>054-066-010500-
   NORTHEAST IOWA

CITY           SKY/WX    TMP DP  RH WIND       PRES   REMARKS
CEDAR RAPIDS   CLOUDY    65  65 100 SE3       29.92F
CHARLES CITY * FOG       63  63 100 SW6       29.94S VSB 0
CLINTON *      LGT RAIN  67  64  90 SE15      29.92F
DECORAH *      CLOUDY    63  63 100 S5        29.92R FOG
DUBUQUE        CLOUDY    65  63  93 VRB6      29.94S
MONTICELLO *   LGT RAIN  64  63  94 CALM      29.93F
OELWEIN *      CLOUDY    64 N/A N/A S5        29.94S
WATERLOO       CLOUDY    64  63  96 S6        29.93R
$$

IAZ064-065-067-068-078-010500-
   EAST CENTRAL IOWA

CITY           SKY/WX    TMP DP  RH WIND       PRES   REMARKS
DAVENPORT      MOCLDY    68  63  84 SE10      29.92F
IOWA CITY      LGT RAIN  67  63  87 S12       29.95R
MT. PLEASANT * HVY RAIN  68  64  88 SW5G18    29.96R
MUSCATINE *    HVY RAIN  66  64  94 W14       29.97R VSB 3/4
QUAD CITIES    MOCLDY    70  63  78 SE6       29.91F
$$

IAZ062-063-075>077-085>089-095>099-010500-
   SOUTHEAST IOWA

CITY           SKY/WX    TMP DP  RH WIND       PRES   REMARKS
BURLINGTON     CLOUDY    73  65  75 S3        29.91S
FAIRFIELD *      N/A    N/A N/A N/A MISG        N/A
FORT MADISON * CLOUDY    72  64  78 CALM      29.93S
KEOKUK *       CLOUDY    72  66  83 W5G13     29.92S
OSKALOOSA *      N/A     66  63  88 W3        29.95R
OTTUMWA        CLOUDY    65  63  93 W3        29.94R
WASHINGTON *   MOCLDY    64 N/A N/A W6        29.96F
$$

ABBREVIATIONS USED IN REMARKS
   TC - TEMPERATURES IN CELSIUS
  WCI - WIND CHILL INDEX
   HX - HEAT INDEX
  VSB - VISIBILITY
$$





USA.gov is the U.S. government's official web portal to all federal, state and local government web resources and services.